StationID,Date,MaxTemp,MinTemp,Precipitation,Snowfall,SnowDepth
"USW00003167","1998-04-01",57.92,44.06,18.00,,
"USW00003167","1998-04-02",62.06,46.04,0.00,,
"USW00003167","1998-04-03",62.96,48.92,25.00,,
"USW00003167","1998-04-04",55.94,46.04,30.00,,
"USW00003167","1998-04-05",64.04,48.92,0.00,,
"USW00003167","1998-04-06",64.04,50.00,0.00,,
"USW00003167","1998-04-07",64.04,48.92,0.00,,
"USW00003167","1998-04-08",66.92,51.08,0.00,,
"USW00003167","1998-04-09",66.92,51.98,0.00,,
"USW00003167","1998-04-10",66.02,53.06,0.00,,
"USW00003167","1998-04-11",57.92,51.98,211.00,,
"USW00003167","1998-04-12",64.04,51.08,0.00,,
"USW00003167","1998-04-13",60.08,48.92,0.00,,
"USW00003167","1998-04-14",60.98,50.00,0.00,,
"USW00003167","1998-04-15",62.96,48.02,0.00,,
"USW00003167","1998-04-16",64.94,48.02,0.00,,
"USW00003167","1998-04-17",73.94,50.00,0.00,,
"USW00003167","1998-04-18",73.94,53.06,0.00,,
"USW00003167","1998-04-19",75.02,53.96,0.00,,
"USW00003167","1998-04-20",78.08,55.94,0.00,,
"USW00003167","1998-04-21",78.98,59.00,0.00,,
"USW00003167","1998-04-22",68.00,59.00,0.00,,
"USW00003167","1998-04-23",66.02,57.92,0.00,,
"USW00003167","1998-04-24",66.02,57.92,0.00,,
"USW00003167","1998-04-25",69.08,55.04,0.00,,
"USW00003167","1998-04-26",69.98,55.04,0.00,,
"USW00003167","1998-04-27",78.08,57.02,0.00,,
"USW00003167","1998-04-28",77.00,55.94,0.00,,
"USW00003167","1998-04-29",69.08,53.96,0.00,,
"USW00003167","1998-04-30",66.92,55.04,0.00,,
"USW00003167","1998-11-07",64.94,53.06,0.00,,
"USW00003167","1998-11-08",66.02,53.96,338.00,,
"USW00003167","1998-11-09",69.08,51.98,0.00,,
"USW00003167","1998-11-10",69.08,50.00,0.00,,0.00
"USW00003167","1998-11-11",60.98,51.98,13.00,,
"USW00003167","1998-11-12",71.06,46.94,3.00,,
"USW00003167","1998-11-13",75.02,48.92,0.00,,
"USW00003167","1998-11-14",75.02,50.00,0.00,,
"USW00003167","1998-11-15",69.98,48.92,0.00,,
"USW00003167","1998-11-16",69.08,48.92,3.00,,
"USW00003167","1998-11-17",64.94,55.04,0.00,,
"USW00003167","1998-11-18",66.02,51.08,0.00,,
"USW00003167","1998-11-19",78.08,50.00,0.00,,
"USW00003167","1998-11-20",75.92,51.08,0.00,,
"USW00003167","1998-11-21",71.96,48.92,0.00,,
"USW00003167","1998-11-22",71.06,48.92,0.00,,
"USW00003167","1998-11-23",68.00,53.06,0.00,,0.00
"USW00003167","1998-11-24",64.94,51.98,3.00,,
"USW00003167","1998-11-25",68.00,51.08,0.00,,
"USW00003167","1998-11-26",73.04,51.08,3.00,,
"USW00003167","1998-11-27",62.96,50.00,3.00,,
"USW00003167","1998-11-28",60.08,51.08,163.00,,
"USW00003167","1998-11-29",62.96,50.00,0.00,,
"USW00003167","1998-11-30",64.94,51.08,0.00,,
"USW00003167","1998-12-01",60.08,51.98,71.00,,
"USW00003167","1998-12-02",62.96,50.00,3.00,,
"USW00003167","1998-12-03",60.08,50.00,8.00,,
"USW00003167","1998-12-04",60.08,46.04,20.00,,
"USW00003167","1998-12-05",62.06,46.94,0.00,,
"USW00003167","1998-12-06",55.94,44.06,119.00,,
"USW00003167","1998-12-07",60.08,39.02,0.00,,
"USW00003167","1998-12-08",66.02,42.08,0.00,,
"USW00003167","1998-12-09",66.02,44.96,0.00,,
"USW00003167","1998-12-10",66.02,41.00,0.00,,0.00
"USW00003167","1998-12-11",68.00,46.04,0.00,,
"USW00003167","1998-12-12",78.08,44.96,0.00,,0.00
"USW00003167","1998-12-13",73.94,53.06,0.00,,
"USW00003167","1998-12-14",64.94,48.02,0.00,,
"USW00003167","1998-12-15",,,0.00,,0.00
"USW00003167","1998-12-16",84.02,48.02,0.00,,
"USW00003167","1998-12-17",80.06,48.92,0.00,,
"USW00003167","1998-12-18",60.98,55.94,0.00,,
"USW00003167","1998-12-19",59.00,53.06,8.00,,
"USW00003167","1998-12-20",57.02,44.96,5.00,,
"USW00003167","1998-12-21",55.04,39.92,0.00,,
"USW00003167","1998-12-22",55.94,39.92,0.00,,
"USW00003167","1998-12-23",57.02,37.04,0.00,,
"USW00003167","1998-12-24",62.96,37.04,0.00,,
"USW00003167","1998-12-25",71.96,37.94,0.00,,
"USW00003167","1998-12-26",66.02,42.98,0.00,,
"USW00003167","1998-12-27",69.98,42.98,0.00,,
"USW00003167","1998-12-28",71.96,44.06,0.00,,
"USW00003167","1998-12-29",71.96,44.96,3.00,,
"USW00003167","1998-12-30",73.94,46.04,3.00,,
"USW00003167","1998-12-31",57.92,50.00,0.00,,
"USW00003167","1999-01-01",66.92,44.06,3.00,,
"USW00003167","1999-01-02",75.02,42.08,3.00,,
"USW00003167","1999-01-03",77.00,42.98,0.00,,
"USW00003167","1999-01-04",80.06,48.02,0.00,,
"USW00003167","1999-01-05",75.92,50.00,0.00,,
"USW00003167","1999-01-06",71.06,48.02,0.00,,
"USW00003167","1999-01-07",60.08,46.94,0.00,,
"USW00003167","1999-01-08",64.94,51.08,0.00,,
"USW00003167","1999-01-09",75.02,42.98,0.00,,
"USW00003167","1999-01-10",80.96,46.04,0.00,,
"USW00003167","1999-01-11",69.08,51.08,0.00,,
"USW00003167","1999-01-12",60.98,51.08,0.00,,
"USW00003167","1999-01-13",60.08,46.94,0.00,,
"USW00003167","1999-01-14",80.06,46.94,3.00,,
"USW00003167","1999-01-15",71.06,50.00,0.00,,
"USW00003167","1999-01-16",64.04,53.06,0.00,,
"USW00003167","1999-01-17",64.94,53.96,0.00,,
"USW00003167","1999-01-18",59.00,53.06,0.00,,
"USW00003167","1999-01-19",60.08,55.94,10.00,,
"USW00003167","1999-01-20",60.08,55.94,43.00,,
"USW00003167","1999-01-21",64.94,53.96,3.00,,
"USW00003167","1999-01-22",66.92,48.02,0.00,,
"USW00003167","1999-01-23",62.96,46.94,0.00,,
"USW00003167","1999-01-24",60.08,51.98,3.00,,
"USW00003167","1999-01-25",55.94,46.04,117.00,,
"USW00003167","1999-01-26",55.04,46.04,114.00,,
"USW00003167","1999-01-27",62.96,42.98,0.00,,
"USW00003167","1999-01-28",62.96,42.08,0.00,,
"USW00003167","1999-01-29",68.00,42.08,0.00,,
"USW00003167","1999-01-30",66.02,46.04,0.00,,
"USW00003167","1999-01-31",60.08,48.92,89.00,,
"USW00003167","1999-02-01",62.96,46.04,0.00,,
"USW00003167","1999-02-02",71.96,44.06,0.00,,
"USW00003167","1999-02-03",68.00,44.96,0.00,,
"USW00003167","1999-02-04",57.92,50.00,23.00,,
"USW00003167","1999-02-05",57.02,50.00,5.00,,
"USW00003167","1999-02-06",60.08,51.08,0.00,,
"USW00003167","1999-02-07",60.98,48.92,5.00,,
"USW00003167","1999-02-08",60.98,55.94,0.00,,
"USW00003167","1999-02-09",57.92,46.94,51.00,,
"USW00003167","1999-02-10",57.02,44.06,0.00,,
"USW00003167","1999-02-11",64.94,37.94,0.00,,
"USW00003167","1999-02-12",75.92,44.06,0.00,,
"USW00003167","1999-02-13",71.06,44.06,0.00,,
"USW00003167","1999-02-14",60.98,48.02,0.00,,
"USW00003167","1999-02-15",62.96,48.02,0.00,,
"USW00003167","1999-02-16",60.08,48.92,0.00,,
"USW00003167","1999-02-17",66.02,50.00,0.00,,
"USW00003167","1999-02-18",57.92,53.06,0.00,,
"USW00003167","1999-02-19",62.06,53.06,0.00,,
"USW00003167","1999-02-20",69.98,48.02,0.00,,
"USW00003167","1999-02-21",66.92,53.06,0.00,,
"USW00003167","1999-02-22",75.92,53.96,0.00,,
"USW00003167","1999-02-23",77.00,50.00,0.00,,
"USW00003167","1999-02-24",73.94,48.92,0.00,,
"USW00003167","1999-02-25",62.06,51.08,0.00,,
"USW00003167","1999-02-26",62.06,48.02,0.00,,
"USW00003167","1999-02-27",64.94,48.92,0.00,,
"USW00003167","1999-02-28",69.08,48.92,3.00,,
"USW00003167","1999-03-01",68.00,51.08,0.00,,
"USW00003167","1999-03-02",69.98,50.00,3.00,,
"USW00003167","1999-03-03",64.04,51.08,0.00,,
"USW00003167","1999-03-04",60.98,53.06,0.00,,
"USW00003167","1999-03-05",62.96,50.00,0.00,,
"USW00003167","1999-03-06",57.02,51.98,0.00,,
"USW00003167","1999-03-07",60.08,50.00,0.00,,
"USW00003167","1999-03-08",60.98,50.00,0.00,,
"USW00003167","1999-03-09",60.08,46.94,30.00,,
"USW00003167","1999-03-10",57.02,44.96,0.00,,
"USW00003167","1999-03-11",55.04,48.92,20.00,,
"USW00003167","1999-03-12",64.04,44.06,0.00,,
"USW00003167","1999-03-13",69.08,46.04,0.00,,
"USW00003167","1999-03-14",60.08,51.08,0.00,,
"USW00003167","1999-03-15",55.04,48.02,150.00,,
"USW00003167","1999-03-16",57.92,46.94,8.00,,
"USW00003167","1999-03-17",59.00,50.00,0.00,,
"USW00003167","1999-03-18",64.04,51.08,0.00,,
"USW00003167","1999-03-19",62.96,48.92,0.00,,
"USW00003167","1999-03-20",60.98,50.00,71.00,,
"USW00003167","1999-03-21",62.96,48.92,0.00,,
"USW00003167","1999-03-22",62.96,48.02,0.00,,
"USW00003167","1999-03-23",62.96,51.98,3.00,,
"USW00003167","1999-03-24",62.96,50.00,0.00,,
"USW00003167","1999-03-25",55.04,48.92,193.00,,
"USW00003167","1999-03-26",64.94,46.94,3.00,,
"USW00003167","1999-03-27",64.94,53.06,0.00,,
"USW00003167","1999-03-28",64.04,50.00,0.00,,
"USW00003167","1999-03-29",69.98,50.00,0.00,,
"USW00003167","1999-03-30",62.96,53.06,0.00,,
"USW00003167","1999-03-31",60.98,48.92,0.00,,
"USW00003167","1999-04-01",59.00,48.02,51.00,,
"USW00003167","1999-04-02",62.06,44.06,0.00,,
"USW00003167","1999-04-03",60.08,48.92,0.00,,
"USW00003167","1999-04-04",60.08,42.98,0.00,,
"USW00003167","1999-04-05",60.98,46.94,0.00,,
"USW00003167","1999-04-06",55.94,48.92,124.00,,
"USW00003167","1999-04-07",57.92,42.98,109.00,,
"USW00003167","1999-04-08",59.00,48.02,28.00,,
"USW00003167","1999-04-09",59.00,42.98,0.00,,
"USW00003167","1999-04-10",66.02,44.96,0.00,,
"USW00003167","1999-04-11",55.04,48.02,422.00,,
"USW00003167","1999-04-12",57.92,44.06,3.00,,
"USW00003167","1999-04-13",62.96,50.00,0.00,,
"USW00003167","1999-04-14",64.04,51.98,0.00,,
"USW00003167","1999-04-15",73.94,53.06,0.00,,
"USW00003167","1999-04-16",84.02,53.96,0.00,,
"USW00003167","1999-04-17",87.08,57.92,0.00,,
"USW00003167","1999-04-18",82.94,55.04,0.00,,
"USW00003167","1999-04-19",80.96,57.02,0.00,,
"USW00003167","1999-04-20",71.96,57.02,0.00,,
"USW00003167","1999-04-21",69.08,55.94,0.00,,
"USW00003167","1999-04-22",60.98,55.04,0.00,,0.00
"USW00003167","1999-04-23",64.94,55.04,0.00,,
"USW00003167","1999-04-24",64.04,55.94,0.00,,
"USW00003167","1999-04-25",62.06,53.06,0.00,,
"USW00003167","1999-04-26",64.04,53.96,0.00,,
"USW00003167","1999-04-27",62.06,53.96,0.00,,
"USW00003167","1999-04-28",64.94,51.98,3.00,,
"USW00003167","1999-04-29",62.06,48.92,0.00,,
"USW00003167","1999-04-30",60.98,53.96,0.00,,
"USW00003167","1999-05-01",64.04,51.08,0.00,,
"USW00003167","1999-05-02",60.98,53.06,0.00,,
"USW00003167","1999-05-03",62.96,55.04,0.00,,
"USW00003167","1999-05-04",64.04,53.06,0.00,,
"USW00003167","1999-05-05",71.06,51.98,0.00,,
"USW00003167","1999-05-06",71.96,55.04,0.00,,
"USW00003167","1999-05-07",69.98,57.02,0.00,,
"USW00003167","1999-05-08",66.02,57.92,0.00,,
"USW00003167","1999-05-09",64.94,57.02,0.00,,
"USW00003167","1999-05-10",66.02,57.02,0.00,,
"USW00003167","1999-05-11",68.00,55.94,0.00,,
"USW00003167","1999-05-12",68.00,57.92,0.00,,
"USW00003167","1999-05-13",66.92,59.00,0.00,,
"USW00003167","1999-05-14",66.92,57.92,0.00,,
"USW00003167","1999-05-15",66.02,57.02,0.00,,
"USW00003167","1999-05-16",66.92,53.96,0.00,,
"USW00003167","1999-05-17",73.04,55.94,0.00,,
"USW00003167","1999-05-18",71.96,59.00,0.00,,
"USW00003167","1999-05-19",69.08,59.00,0.00,,
"USW00003167","1999-05-20",66.92,57.92,0.00,,
"USW00003167","1999-05-21",64.04,57.92,0.00,,
"USW00003167","1999-05-22",66.02,57.02,0.00,,
"USW00003167","1999-05-23",66.92,57.92,0.00,,
"USW00003167","1999-05-24",68.00,55.94,0.00,,
"USW00003167","1999-05-25",69.98,60.08,0.00,,
"USW00003167","1999-05-26",69.98,60.98,0.00,,
"USW00003167","1999-05-27",69.08,60.08,0.00,,
"USW00003167","1999-05-28",68.00,59.00,0.00,,
"USW00003167","1999-05-29",68.00,59.00,0.00,,
"USW00003167","1999-05-30",66.02,59.00,0.00,,
"USW00003167","1999-05-31",68.00,57.92,0.00,,
"USW00003167","1999-06-01",66.92,55.94,0.00,,
"USW00003167","1999-06-02",64.94,55.04,30.00,,
"USW00003167","1999-06-03",62.96,53.96,0.00,,
"USW00003167","1999-06-04",64.04,51.08,,,
"USW00003167","1999-06-05",66.92,55.04,,,
"USW00003167","1999-06-06",66.92,55.94,,,
"USW00003167","1999-06-07",69.98,57.92,0.00,,
"USW00003167","1999-06-08",71.06,57.02,0.00,,
"USW00003167","1999-06-09",68.00,59.00,0.00,,
"USW00003167","1999-06-10",68.00,57.92,0.00,,
"USW00003167","1999-06-11",69.08,57.92,0.00,,
"USW00003167","1999-06-12",68.00,57.92,0.00,,
"USW00003167","1999-06-13",71.96,57.92,0.00,,
"USW00003167","1999-06-14",80.06,57.92,0.00,,
"USW00003167","1999-06-15",73.94,62.06,0.00,,
"USW00003167","1999-06-16",69.98,60.08,0.00,,
"USW00003167","1999-06-17",69.98,60.98,0.00,,
"USW00003167","1999-06-18",69.98,57.92,0.00,,
"USW00003167","1999-06-19",71.06,59.00,0.00,,
"USW00003167","1999-06-20",73.04,59.00,0.00,,
"USW00003167","1999-06-21",71.06,60.98,0.00,,
"USW00003167","1999-06-22",71.96,60.08,0.00,,
"USW00003167","1999-06-23",71.96,60.08,0.00,,
"USW00003167","1999-06-24",71.96,60.08,0.00,,
"USW00003167","1999-06-25",71.06,60.08,0.00,,
"USW00003167","1999-06-26",71.96,60.98,0.00,,
"USW00003167","1999-06-27",71.96,60.98,0.00,,
"USW00003167","1999-06-28",71.96,62.06,0.00,,
"USW00003167","1999-06-29",73.94,60.98,0.00,,
"USW00003167","1999-06-30",73.04,62.06,0.00,,
"USW00003167","1999-07-01",73.04,62.06,0.00,,
"USW00003167","1999-07-02",71.06,62.96,0.00,,
"USW00003167","1999-07-03",71.06,62.06,0.00,,
"USW00003167","1999-07-04",73.04,64.04,0.00,,
"USW00003167","1999-07-05",77.00,60.98,0.00,,
"USW00003167","1999-07-06",73.94,60.98,0.00,,
"USW00003167","1999-07-07",75.92,64.04,0.00,,
"USW00003167","1999-07-08",80.06,66.92,0.00,,
"USW00003167","1999-07-09",80.06,66.92,0.00,,
"USW00003167","1999-07-10",78.98,64.94,0.00,,
"USW00003167","1999-07-11",80.96,64.94,0.00,,
"USW00003167","1999-07-12",84.02,66.92,0.00,,
"USW00003167","1999-07-13",82.04,66.92,0.00,,
"USW00003167","1999-07-14",75.02,64.94,0.00,,
"USW00003167","1999-07-15",73.94,64.04,0.00,,
"USW00003167","1999-07-16",73.94,64.04,0.00,,
"USW00003167","1999-07-17",75.92,62.06,0.00,,
"USW00003167","1999-07-18",75.02,64.04,0.00,,
"USW00003167","1999-07-19",73.94,62.96,0.00,,
"USW00003167","1999-07-20",75.92,62.06,0.00,,
"USW00003167","1999-07-21",122.00,60.98,0.00,,
"USW00003167","1999-07-22",77.00,62.06,0.00,,
"USW00003167","1999-07-23",75.92,62.06,0.00,,
"USW00003167","1999-07-24",73.94,60.08,0.00,,
"USW00003167","1999-07-25",73.94,60.08,0.00,,
"USW00003167","1999-07-26",73.04,62.06,0.00,,
"USW00003167","1999-07-27",71.06,60.98,0.00,,
"USW00003167","1999-07-28",71.96,62.06,0.00,,
"USW00003167","1999-07-29",75.02,62.06,0.00,,
"USW00003167","1999-07-30",75.92,62.96,0.00,,
"USW00003167","1999-07-31",75.02,62.96,0.00,,
"USW00003167","1999-08-01",75.02,62.06,0.00,,
"USW00003167","1999-08-02",77.00,62.96,0.00,,
"USW00003167","1999-08-03",80.96,62.96,0.00,,
"USW00003167","1999-08-04",77.00,64.04,0.00,,
"USW00003167","1999-08-05",71.96,64.04,0.00,,
"USW00003167","1999-08-06",73.04,62.96,0.00,,
"USW00003167","1999-08-07",71.96,60.98,0.00,,
"USW00003167","1999-08-08",75.02,60.08,0.00,,
"USW00003167","1999-08-09",73.04,60.08,0.00,,
"USW00003167","1999-08-10",73.04,62.06,0.00,,
"USW00003167","1999-08-11",71.96,60.98,0.00,,
"USW00003167","1999-08-12",75.92,62.06,0.00,,
"USW00003167","1999-08-13",80.06,62.96,0.00,,
"USW00003167","1999-08-14",75.02,62.96,0.00,,
"USW00003167","1999-08-15",73.04,62.96,0.00,,
"USW00003167","1999-08-16",75.02,60.08,0.00,,
"USW00003167","1999-08-17",73.04,62.06,0.00,,
"USW00003167","1999-08-18",73.94,62.06,0.00,,
"USW00003167","1999-08-19",73.94,60.98,0.00,,
"USW00003167","1999-08-20",71.96,60.08,0.00,,
"USW00003167","1999-08-21",73.04,60.08,0.00,,
"USW00003167","1999-08-22",75.02,62.06,0.00,,
"USW00003167","1999-08-23",73.04,60.98,0.00,,
"USW00003167","1999-08-24",73.04,62.06,0.00,,
"USW00003167","1999-08-25",78.98,64.04,0.00,,
"USW00003167","1999-08-26",80.96,64.04,0.00,,
"USW00003167","1999-08-27",77.00,62.96,0.00,,
"USW00003167","1999-08-28",71.96,60.98,0.00,,
"USW00003167","1999-08-29",75.02,60.98,0.00,,
"USW00003167","1999-08-30",73.04,62.96,0.00,,
"USW00003167","1999-08-31",77.00,62.96,0.00,,
"USW00003167","1999-09-01",75.92,62.96,0.00,,
"USW00003167","1999-09-02",73.04,62.96,0.00,,
"USW00003167","1999-09-03",71.96,62.06,0.00,,
"USW00003167","1999-09-04",71.06,62.06,0.00,,
"USW00003167","1999-09-05",69.08,62.06,0.00,,
"USW00003167","1999-09-06",69.98,62.06,0.00,,
"USW00003167","1999-09-07",71.06,62.06,0.00,,
"USW00003167","1999-09-08",73.94,60.98,0.00,,
"USW00003167","1999-09-09",75.02,62.06,0.00,,
"USW00003167","1999-09-10",73.04,60.98,0.00,,
"USW00003167","1999-09-11",71.96,57.02,0.00,,
"USW00003167","1999-09-12",71.06,57.92,0.00,,
"USW00003167","1999-09-13",71.06,59.00,0.00,,
"USW00003167","1999-09-14",71.96,57.92,0.00,,
"USW00003167","1999-09-15",71.96,60.98,0.00,,
"USW00003167","1999-09-16",69.08,60.98,0.00,,
"USW00003167","1999-09-17",68.00,60.98,0.00,,
"USW00003167","1999-09-18",66.02,60.98,0.00,,
"USW00003167","1999-09-19",71.06,60.98,0.00,,
"USW00003167","1999-09-20",71.06,57.02,0.00,,
"USW00003167","1999-09-21",84.02,60.08,0.00,,
"USW00003167","1999-09-22",78.98,64.04,0.00,,
"USW00003167","1999-09-23",71.06,62.96,0.00,,
"USW00003167","1999-09-24",69.98,60.98,0.00,,
"USW00003167","1999-09-25",66.92,60.08,0.00,,
"USW00003167","1999-09-26",69.08,60.08,0.00,,
"USW00003167","1999-09-27",69.98,60.98,0.00,,
"USW00003167","1999-09-28",73.04,62.96,0.00,,
"USW00003167","1999-09-29",100.04,57.92,0.00,,
"USW00003167","1999-09-30",100.94,69.08,0.00,,
"USW00003167","1999-10-01",84.92,68.00,0.00,,
"USW00003167","1999-10-02",75.92,62.96,0.00,,
"USW00003167","1999-10-03",71.96,64.04,0.00,,
"USW00003167","1999-10-04",78.98,62.06,0.00,,
"USW00003167","1999-10-05",80.96,64.94,0.00,,
"USW00003167","1999-10-06",78.08,64.94,0.00,,
"USW00003167","1999-10-07",87.08,64.94,0.00,,
"USW00003167","1999-10-08",95.00,64.94,0.00,,
"USW00003167","1999-10-09",98.06,66.92,0.00,,
"USW00003167","1999-10-10",91.94,66.02,0.00,,
"USW00003167","1999-10-11",84.92,64.94,0.00,,
"USW00003167","1999-10-12",87.98,62.06,0.00,,
"USW00003167","1999-10-13",89.06,64.04,0.00,,
"USW00003167","1999-10-14",82.94,64.04,0.00,,
"USW00003167","1999-10-15",75.02,66.92,0.00,,
"USW00003167","1999-10-16",75.02,66.02,0.00,,
"USW00003167","1999-10-17",82.94,62.06,0.00,,
"USW00003167","1999-10-18",89.96,60.98,0.00,,
"USW00003167","1999-10-19",91.94,59.00,0.00,,
"USW00003167","1999-10-20",98.96,62.96,0.00,,
"USW00003167","1999-10-21",96.08,64.94,0.00,,
"USW00003167","1999-10-22",91.04,60.98,0.00,,
"USW00003167","1999-10-23",80.96,62.96,0.00,,
"USW00003167","1999-10-24",87.08,62.06,0.00,,
"USW00003167","1999-10-25",84.92,64.04,0.00,,
"USW00003167","1999-10-26",75.02,64.04,0.00,,
"USW00003167","1999-10-27",73.94,64.04,0.00,,
"USW00003167","1999-10-28",71.06,62.96,0.00,,
"USW00003167","1999-10-29",80.96,62.06,0.00,,
"USW00003167","1999-10-30",96.98,62.06,0.00,,
"USW00003167","1999-10-31",95.00,64.04,0.00,,
"USW00003167","1999-11-01",87.08,60.98,0.00,,
"USW00003167","1999-11-02",73.94,62.06,0.00,,
"USW00003167","1999-11-03",73.04,60.08,3.00,,
"USW00003167","1999-11-04",71.96,60.08,0.00,,
"USW00003167","1999-11-05",73.04,62.96,0.00,,
"USW00003167","1999-11-06",71.06,59.00,0.00,,
"USW00003167","1999-11-07",73.94,59.00,0.00,,
"USW00003167","1999-11-08",69.98,60.98,74.00,,
"USW00003167","1999-11-09",71.06,57.02,3.00,,
"USW00003167","1999-11-10",73.94,57.02,3.00,,
"USW00003167","1999-11-11",78.08,55.94,3.00,,
"USW00003167","1999-11-12",73.04,57.02,3.00,,
"USW00003167","1999-11-13",71.96,60.08,3.00,,
"USW00003167","1999-11-14",73.04,60.08,0.00,,
"USW00003167","1999-11-16",75.02,64.94,0.00,,
"USW00003167","1999-11-17",69.98,60.08,8.00,,
"USW00003167","1999-11-18",73.04,59.00,0.00,,
"USW00003167","1999-11-19",69.98,57.02,0.00,,
"USW00003167","1999-11-20",68.00,60.08,8.00,,
"USW00003167","1999-11-21",73.04,53.96,0.00,,
"USW00003167","1999-11-22",71.96,53.06,0.00,,
"USW00003167","1999-11-23",71.96,51.08,0.00,,
"USW00003167","1999-11-24",78.08,50.00,0.00,,
"USW00003167","1999-11-25",78.98,51.08,0.00,,
"USW00003167","1999-11-26",82.94,53.06,0.00,,
"USW00003167","1999-11-27",73.94,51.98,3.00,,
"USW00003167","1999-11-28",73.04,55.94,0.00,,
"USW00003167","1999-11-29",77.00,55.04,3.00,,
"USW00003167","1999-11-30",69.08,55.94,3.00,,
"USW00003167","1999-12-01",68.00,57.02,0.00,,
"USW00003167","1999-12-02",69.98,51.98,0.00,,
"USW00003167","1999-12-03",71.96,55.04,0.00,,
"USW00003167","1999-12-04",75.02,48.92,0.00,,
"USW00003167","1999-12-05",73.04,51.98,0.00,,
"USW00003167","1999-12-06",73.04,50.00,0.00,,
"USW00003167","1999-12-07",69.08,50.00,0.00,,
"USW00003167","1999-12-08",71.96,53.96,0.00,,
"USW00003167","1999-12-09",69.98,55.04,0.00,,
"USW00003167","1999-12-10",69.08,51.98,0.00,,
"USW00003167","1999-12-11",69.98,46.94,0.00,,
"USW00003167","1999-12-12",73.04,46.94,0.00,,
"USW00003167","1999-12-13",62.96,48.92,0.00,,
"USW00003167","1999-12-14",73.94,50.00,3.00,,
"USW00003167","1999-12-15",73.94,48.02,0.00,,
"USW00003167","1999-12-16",80.06,51.98,0.00,,
"USW00003167","1999-12-17",80.96,51.08,0.00,,
"USW00003167","1999-12-18",75.92,51.08,0.00,,
"USW00003167","1999-12-19",77.00,51.08,0.00,,
"USW00003167","1999-12-20",80.06,53.06,0.00,,
"USW00003167","1999-12-21",75.92,51.08,0.00,,
"USW00003167","1999-12-22",75.02,51.98,0.00,,
"USW00003167","1999-12-23",77.00,50.00,0.00,,
"USW00003167","1999-12-24",82.04,50.00,0.00,,
"USW00003167","1999-12-25",80.96,48.02,0.00,,
"USW00003167","1999-12-26",77.00,51.98,0.00,,
"USW00003167","1999-12-27",78.08,53.96,0.00,,
"USW00003167","1999-12-28",80.96,53.06,0.00,,
"USW00003167","1999-12-29",75.02,50.00,0.00,,
"USW00003167","1999-12-30",71.06,48.92,0.00,,
"USW00003167","1999-12-31",60.98,53.06,38.00,,
"USW00003167","2000-01-01",62.06,50.00,0.00,,
"USW00003167","2000-01-02",64.94,51.08,0.00,,
"USW00003167","2000-01-03",71.06,48.92,0.00,,
"USW00003167","2000-01-04",73.04,51.08,0.00,,
"USW00003167","2000-01-05",75.02,48.02,0.00,,
"USW00003167","2000-01-06",71.06,46.94,0.00,,
"USW00003167","2000-01-07",68.00,48.02,0.00,,
"USW00003167","2000-01-08",68.00,44.06,0.00,,
"USW00003167","2000-01-09",66.92,46.94,3.00,,
"USW00003167","2000-01-10",68.00,51.98,0.00,,
"USW00003167","2000-01-11",66.02,55.04,3.00,,
"USW00003167","2000-01-12",68.00,57.92,0.00,,
"USW00003167","2000-01-13",84.02,51.98,3.00,,
"USW00003167","2000-01-14",82.94,55.04,0.00,,
"USW00003167","2000-01-15",77.00,59.00,0.00,,
"USW00003167","2000-01-16",68.00,60.98,3.00,,
"USW00003167","2000-01-17",71.06,60.08,3.00,,
"USW00003167","2000-01-18",80.96,62.96,0.00,,
"USW00003167","2000-01-19",75.92,59.00,0.00,,
"USW00003167","2000-01-20",73.04,60.98,0.00,,
"USW00003167","2000-01-21",66.92,60.08,0.00,,
"USW00003167","2000-01-22",66.02,57.02,0.00,,
"USW00003167","2000-01-23",69.98,57.02,0.00,,
"USW00003167","2000-01-24",78.08,60.98,3.00,,
"USW00003167","2000-01-25",68.00,60.98,122.00,,
"USW00003167","2000-01-26",71.96,55.04,3.00,,
"USW00003167","2000-01-27",71.06,51.98,0.00,,
"USW00003167","2000-01-28",73.94,51.98,3.00,,
"USW00003167","2000-01-29",69.08,51.98,3.00,,
"USW00003167","2000-01-30",62.96,57.92,48.00,,
"USW00003167","2000-01-31",66.92,57.92,3.00,,
"USW00003167","2000-02-01",80.96,53.96,0.00,,
"USW00003167","2000-02-02",82.94,59.00,0.00,,
"USW00003167","2000-02-03",78.08,53.96,0.00,,
"USW00003167","2000-02-04",68.00,59.00,3.00,,
"USW00003167","2000-02-05",69.98,57.92,0.00,,
"USW00003167","2000-02-06",77.00,53.06,3.00,,
"USW00003167","2000-02-07",77.00,55.04,0.00,,
"USW00003167","2000-02-08",75.92,59.00,0.00,,
"USW00003167","2000-02-09",66.92,57.02,3.00,,
"USW00003167","2000-02-10",64.04,57.92,79.00,,
"USW00003167","2000-02-11",64.94,53.96,18.00,,
"USW00003167","2000-02-12",66.92,57.92,127.00,,
"USW00003167","2000-02-13",62.06,57.92,51.00,,
"USW00003167","2000-02-14",68.00,59.00,36.00,,
"USW00003167","2000-02-15",66.92,59.00,0.00,,
"USW00003167","2000-02-16",60.98,53.96,152.00,,
"USW00003167","2000-02-17",64.04,51.08,0.00,,
"USW00003167","2000-02-18",75.92,51.98,0.00,,
"USW00003167","2000-02-19",80.06,57.02,0.00,,
"USW00003167","2000-02-20",66.02,53.06,150.00,,
"USW00003167","2000-02-21",60.08,51.98,239.00,,
"USW00003167","2000-02-22",64.94,51.98,0.00,,
"USW00003167","2000-02-23",60.08,51.98,193.00,,
"USW00003167","2000-02-24",62.06,46.94,0.00,,
"USW00003167","2000-02-25",64.04,53.06,0.00,,
"USW00003167","2000-02-26",68.00,51.98,0.00,,
"USW00003167","2000-02-27",60.98,55.04,38.00,,